Weather in Vstrechny

Russia / Chukotka Autonomous Okrug     68°07′27″N   164°53′15″E
temp.,
°C
wind,
m/s
gust,
m/s
humid.,
%
clouds,
%
prec.,
mm/h
press.,
hPa
HPBL,
m
4 march, thu
thu400:00−30ese228561 0.0 101619
03:00−28e2281100 0.0 101219
06:00−27e2281100 0.0 100620
09:00−22e2285100 0.1 100092
12:00−13e81678100 0.3 9931228
15:00−16ese81093100 0.6 989813
18:00−18ene71386100 1.2 985401
21:00−20nne2299100 0.2 98221
5 march, fri
fri500:00−21nnw2298100 0.3 98120
03:00−23wnw22100100 0.2 98020
06:00−28wsw3399100 0.4 98136
09:00−29wsw2398100 0.1 982132
12:00−27w3389100 0.2 982468
15:00−26wsw3490100 0.1 984559
18:00−27s1199100 0.4 98421
21:00−29ese2298100 0.3 98519
6 march, sat
sat600:00−29ene2298100 0.4 98619
03:00−30ene1198100 0.1 98619
06:00−30nw0099100 0.2 98719
09:00−29w1198100 0.1 98919
12:00−27wnw1191100 0.1 990209
15:00−26nw1189100 0.0 992304
18:00−31ssw0010098 0.0 99319
21:00−32e0110094 0.0 99619
7 march, sun
sun700:00−33nnw009997 0.0 99719
03:00−30w1198100 0.1 99919
06:00−31w1199100 0.1 99919
09:00−30w1198100 0.1 100120
12:00−29w2292100 0.3 1001314
15:00−28w2388100 0.1 1002550
18:00−29w2296100 0.2 100331
21:00−30w1198100 0.1 100419
8 march, mon
mon800:00−31wsw2299100 0.1 100419
03:00−33w22100100 0.1 100419
06:00−35w12100100 0.1 100519
09:00−34w1198100 0.1 100522
12:00−31wnw2390100 0.2 1005459
15:00−31wnw3487100 0.1 1004585
18:00−32wsw2297100 0.1 100320
21:00−34w12100100 0.1 100419